Stations météo

Publicité
Boulogne, France (7002): Température de l'air & dewpoint: 03.07.2020 15:00:00 - 09.07.2020 15:00:00 (CEST)Boulogne, France (7002): Vitesse du vent & gusts: 03.07.2020 15:00:00 - 09.07.2020 15:00:00 (CEST)Boulogne, France (7002): Direction du vent: 03.07.2020 15:00:00 - 09.07.2020 15:00:00 (CEST)Boulogne, France (7002): reduced air pressure: 03.07.2020 15:00:00 - 09.07.2020 15:00:00 (CEST)Boulogne, France (7002): visibility: 03.07.2020 15:00:00 - 09.07.2020 15:00:00 (CEST)Boulogne, France (7002): Quantités de précipitations: 03.07.2020 15:00:00 - 09.07.2020 15:00:00 (CEST)
Date & Time tt [°C] td [°C] ff [km/h] ff [knt] fx [km/h] fx [knt] dd ppp [hPa] vv [km] rr [mm]
09.07.2020 15:00:00 16,8 15,5 36 19 54 29 SW 1014,0 - 0,0
09.07.2020 14:00:00 16,2 14,9 39 21 58 31 SW 1014,2 - 0,0
09.07.2020 13:00:00 15,9 14,6 36 19 55 30 SW 1014,5 - 0,0
09.07.2020 12:00:00 15,9 14,6 27 15 48 26 SW 1014,5 - 0,0
09.07.2020 11:00:00 15,4 14,4 24 13 46 25 SSW 1014,6 - 0,0
09.07.2020 10:00:00 15,4 14,4 34 18 48 26 SW 1014,8 - 0,0
09.07.2020 09:00:00 15,2 14,4 33 18 48 26 SW 1014,6 - 0,0
09.07.2020 08:00:00 14,7 14,5 32 18 51 28 SW 1014,6 - 0,0
09.07.2020 07:00:00 14,6 14,6 34 19 50 27 SW 1014,7 - 0,0
09.07.2020 06:00:00 14,6 14,6 38 20 56 30 SW 1014,9 - 0,0
09.07.2020 05:00:00 14,6 14,6 38 21 54 29 SW 1015,1 2,0 0,2
09.07.2020 04:00:00 14,5 14,5 37 20 56 30 SW 1015,3 - 0,0
09.07.2020 03:00:00 14,5 14,5 32 18 51 28 SW 1015,5 - 0,0
09.07.2020 02:00:00 14,7 14,5 34 18 48 26 SW 1016,0 2,0 0,0
09.07.2020 01:00:00 14,7 14,5 31 17 44 24 SW 1016,0 - 0,0
09.07.2020 00:00:00 15,2 15,0 28 15 44 24 SW 1016,2 - 0,0
08.07.2020 23:00:00 15,1 14,9 31 17 44 24 SW 1016,3 2,0 0,0
08.07.2020 22:00:00 15,1 14,9 30 16 48 26 WSW 1016,3 - 0,0
08.07.2020 21:00:00 15,1 14,8 28 15 50 27 SW 1016,2 - 0,0
08.07.2020 20:00:00 15,3 15,0 33 18 48 26 WSW 1016,3 1,0 0,0
08.07.2020 19:00:00 15,4 14,9 30 16 54 29 WSW 1016,2 - 0,0
08.07.2020 18:00:00 15,6 15,1 31 17 49 27 WSW 1016,3 - 0,0
08.07.2020 17:00:00 15,6 15,3 28 15 45 25 WSW 1016,6 1,0 0,0
08.07.2020 16:00:00 15,8 15,3 24 13 42 23 WSW 1016,8 - 0,0
08.07.2020 15:00:00 15,9 15,4 25 13 49 27 WSW 1016,5 - 0,0
08.07.2020 14:00:00 15,6 15,3 29 15 53 29 WSW 1016,3 0,9 0,0
08.07.2020 13:00:00 15,5 15,2 29 16 49 27 WSW 1016,2 - 0,0
08.07.2020 12:00:00 15,2 15,0 29 16 61 33 WSW 1016,2 - 0,2
08.07.2020 11:00:00 14,9 14,7 30 16 55 30 WSW 1015,7 6 0,2
08.07.2020 10:00:00 14,7 14,4 33 18 56 30 WSW 1015,6 - 0,8
08.07.2020 09:00:00 14,7 14,4 28 15 56 31 WSW 1015,4 - 1,2
08.07.2020 08:00:00 14,7 14,2 31 17 52 28 WSW 1015,1 - 0,0
08.07.2020 07:00:00 14,6 14,1 29 16 51 28 WSW 1015,1 - 0,2
08.07.2020 06:00:00 14,5 13,9 30 16 49 26 WSW 1015,3 - 0,2
08.07.2020 05:00:00 14,4 13,8 28 15 49 26 WSW 1015,6 6 1,0
08.07.2020 04:00:00 14,2 13,4 30 16 47 26 WSW 1016,3 - 0,4
08.07.2020 03:00:00 14,5 12,9 28 15 46 25 WSW 1017,0 - 0,0
08.07.2020 02:00:00 14,6 12,5 29 16 44 24 SW 1017,6 12 0,0
08.07.2020 01:00:00 14,6 12,5 27 15 42 23 WSW 1018,1 - 0,0
08.07.2020 00:00:00 14,6 12,3 26 14 43 23 SW 1018,5 - 0,0
07.07.2020 23:00:00 14,5 11,5 24 13 44 24 WSW 1018,7 12 0,0
07.07.2020 22:00:00 14,7 10,7 27 15 44 24 WSW 1018,8 - 0,0
07.07.2020 21:00:00 15,0 10,2 28 15 42 23 SW 1019,0 - 0,0
07.07.2020 20:00:00 15,2 10,8 26 14 43 23 SW 1019,3 17 0,0
07.07.2020 19:00:00 15,6 11,0 23 12 44 24 WSW 1019,6 - 0,0
07.07.2020 18:00:00 16,4 11,3 24 13 40 22 WSW 1019,9 - 0,0
07.07.2020 17:00:00 16,6 11,1 21 11 37 20 WSW 1020,5 - 0,0
07.07.2020 16:00:00 17,1 12,0 21 12 34 19 SW 1020,8 - 0,0
07.07.2020 15:00:00 16,9 11,4 21 12 31 17 SW 1021,0 - 0,0
07.07.2020 14:00:00 17,8 8,9 16 8 26 14 WSW 1021,4 17 0,0
07.07.2020 13:00:00 17,3 9,2 14 8 23 12 WSW 1021,7 - 0,0
07.07.2020 12:00:00 16,7 10,5 10 6 19 10 W 1022,0 - 0,0
07.07.2020 11:00:00 15,7 10,0 7 4 13 7 W 1022,3 20 0,0
07.07.2020 10:00:00 15,7 10,0 6 3 11 6 WNW 1022,2 - 0,0
07.07.2020 09:00:00 15,0 9,1 3 2 7 4 WSW 1022,1 - 0,0
07.07.2020 08:00:00 13,7 9,3 3 2 8 4 ESE 1022,0 20 0,0
07.07.2020 07:00:00 13,6 8,4 4 2 14 8 E 1022,0 - 0,0
07.07.2020 06:00:00 13,6 7,4 8 4 22 12 NNE 1022,0 - 0,0
07.07.2020 05:00:00 13,4 7,8 10 5 19 10 N 1022,2 - 0,0
07.07.2020 04:00:00 13,8 8,0 9 5 23 12 N 1022,6 - 0,0
07.07.2020 03:00:00 15,1 11,9 13 7 29 15 NW 1022,9 - 0,0
07.07.2020 02:00:00 15,2 13,4 12 6 23 12 W 1022,8 12 0,0
07.07.2020 01:00:00 15,2 13,4 16 9 25 13 W 1022,9 - 0,0
07.07.2020 00:00:00 15,3 13,1 16 9 27 15 W 1023,1 - 0,0
06.07.2020 23:00:00 15,4 12,9 14 8 28 15 WSW 1023,1 10 0,0
06.07.2020 22:00:00 15,5 12,6 18 10 35 19 WSW 1022,6 - 0,0
06.07.2020 21:00:00 16,3 12,3 18 10 34 19 WSW 1022,3 - 0,0
06.07.2020 20:00:00 16,2 12,0 20 11 39 21 WSW 1022,2 - 0,0
06.07.2020 19:00:00 16,7 12,6 23 12 45 25 WSW 1021,9 - 0,0
06.07.2020 18:00:00 17,3 11,8 25 14 48 26 W 1021,8 - 0,0
06.07.2020 17:00:00 16,9 11,8 26 14 51 28 W 1021,5 - 0,0
06.07.2020 16:00:00 16,0 11,4 32 17 55 30 W 1021,3 - 0,0
06.07.2020 15:00:00 16,2 10,7 34 18 51 28 W 1021,0 - 0,0
06.07.2020 14:00:00 16,8 11,5 31 17 45 25 W 1020,6 15 0,0
06.07.2020 13:00:00 16,0 9,4 28 15 41 22 W 1020,0 - 0,0
06.07.2020 12:00:00 - - 25 13 41 22 W - - -
06.07.2020 11:00:00 14,5 9,3 26 14 44 24 W 1019,2 - 0,0
06.07.2020 10:00:00 14,1 9,9 30 16 47 26 W 1018,6 - 0,0
06.07.2020 09:00:00 13,8 9,8 32 17 51 28 W 1018,1 - 0,0
06.07.2020 08:00:00 13,4 9,8 35 19 50 27 W 1017,3 - 0,0
06.07.2020 07:00:00 13,6 10,2 32 17 54 29 W 1017,0 - 0,0
06.07.2020 06:00:00 13,6 9,4 40 22 64 35 W 1016,4 - 0,0
06.07.2020 05:00:00 14,0 9,4 38 21 60 33 W 1015,9 7 0,0
06.07.2020 04:00:00 14,1 9,3 41 22 63 34 W 1015,9 - 0,0
06.07.2020 03:00:00 14,7 9,1 42 23 64 35 W 1015,8 - 0,0
06.07.2020 02:00:00 15,0 8,7 49 27 67 36 W 1015,7 7 0,0
06.07.2020 01:00:00 14,6 11,9 37 20 70 38 WSW 1015,5 - 0,0
06.07.2020 00:00:00 14,7 12,0 40 22 77 42 WSW 1015,2 - 0,0
05.07.2020 23:00:00 14,7 11,5 40 22 71 39 WSW 1014,8 7 0,0
05.07.2020 22:00:00 14,8 11,4 44 24 76 41 WSW 1014,4 - 0,0
05.07.2020 21:00:00 15,2 11,8 43 23 76 41 WSW 1014,1 - 0,0
05.07.2020 20:00:00 15,7 11,7 48 26 74 40 WSW 1014,0 - 0,0
05.07.2020 19:00:00 16,3 11,7 44 24 83 45 WSW 1014,1 - 0,0
05.07.2020 18:00:00 16,4 11,5 45 25 74 40 WSW 1014,2 - 0,0
05.07.2020 17:00:00 16,7 11,6 48 26 77 41 SW 1014,0 - 0,0
05.07.2020 16:00:00 16,8 12,5 48 26 84 45 SW 1013,9 - 0,0
05.07.2020 15:00:00 16,7 13,4 53 29 78 42 SW 1013,3 - 0,0
05.07.2020 14:00:00 16,5 14,5 53 29 76 41 SW 1013,3 6 0,0
05.07.2020 13:00:00 16,3 14,5 52 28 78 42 WSW 1013,2 - 0,0
05.07.2020 12:00:00 16,1 15,3 48 26 79 43 SW 1013,0 - 0,0
05.07.2020 11:00:00 15,9 15,3 53 29 78 42 SW 1012,8 6 0,0
05.07.2020 10:00:00 15,5 15,2 53 29 77 42 SW 1012,7 - 0,0
05.07.2020 09:00:00 15,7 15,1 53 28 80 43 SW 1012,2 - 0,0
05.07.2020 08:00:00 15,7 15,1 51 28 80 43 SW 1012,3 - 0,0
05.07.2020 07:00:00 15,5 15,2 45 24 74 40 SW 1012,4 - 0,0
05.07.2020 06:00:00 15,5 14,9 37 20 78 42 SW 1012,5 - 0,0
05.07.2020 05:00:00 15,2 14,7 48 26 78 42 SW 1012,5 2,0 0,0
05.07.2020 04:00:00 15,2 14,7 49 27 80 43 SW 1012,9 - 0,2
05.07.2020 03:00:00 15,4 14,8 45 24 76 41 SW 1013,5 - 0,0
05.07.2020 02:00:00 15,4 14,8 45 24 71 39 SW 1013,6 - 0,0
05.07.2020 01:00:00 15,7 15,1 46 25 72 39 SW 1013,8 - 0,0
05.07.2020 00:00:00 15,7 15,2 46 25 65 35 SW 1013,9 - 0,0
04.07.2020 23:00:00 15,6 15,4 41 22 62 34 WSW 1014,0 4,0 0,0
04.07.2020 22:00:00 15,6 15,4 39 21 61 33 WSW 1013,7 - 0,4
04.07.2020 21:00:00 15,9 15,7 44 24 69 37 SW 1013,5 - 0,2
04.07.2020 20:00:00 16,2 16,0 40 22 70 38 WSW 1013,9 - 0,6
04.07.2020 19:00:00 16,5 16,3 40 22 66 36 SW 1013,7 - 0,2
04.07.2020 18:00:00 16,7 16,4 43 23 65 35 SW 1013,9 - 0,0
04.07.2020 17:00:00 16,7 16,5 37 20 66 36 SW 1014,4 6 0,2
04.07.2020 16:00:00 16,7 16,4 33 18 69 37 SW 1014,4 - 0,0
04.07.2020 15:00:00 17,2 15,7 40 22 74 40 SW 1014,3 - 0,0
04.07.2020 14:00:00 16,8 15,5 46 25 75 41 SW 1014,5 6 0,0
04.07.2020 13:00:00 16,9 15,2 40 22 73 40 SW 1014,6 - 0,0
04.07.2020 12:00:00 16,1 14,8 39 21 76 41 SSW 1014,3 - 0,0
04.07.2020 11:00:00 15,9 14,4 41 22 76 41 SW 1014,3 6 0,0
04.07.2020 10:00:00 15,6 14,1 37 20 68 37 SW 1014,3 - 0,0
04.07.2020 09:00:00 15,0 14,0 37 20 63 34 SSW 1014,7 - 0,0
04.07.2020 08:00:00 14,8 13,8 35 19 66 35 SSW 1014,7 - 0,2
04.07.2020 07:00:00 15,4 13,1 37 20 62 33 SSW 1014,9 - 0,0
04.07.2020 06:00:00 15,5 13,0 32 17 66 36 SSW 1015,3 - 0,0
04.07.2020 05:00:00 15,9 13,2 34 18 63 34 SW 1015,5 8 0,0
04.07.2020 04:00:00 15,6 13,1 28 15 51 28 SSW 1016,0 - 0,0
04.07.2020 03:00:00 15,9 12,3 35 19 59 32 SW 1016,3 - 0,0
04.07.2020 02:00:00 15,7 12,1 31 17 56 30 SSW 1016,8 12 0,0
04.07.2020 01:00:00 15,6 12,0 43 23 60 32 SW 1017,1 - 0,0
04.07.2020 00:00:00 15,2 11,6 36 20 58 31 SW 1017,7 - 0,0
03.07.2020 23:00:00 15,3 11,3 39 21 58 31 SW 1017,8 12 0,0
03.07.2020 22:00:00 15,5 11,3 35 19 52 28 SW 1017,9 - 0,0
03.07.2020 21:00:00 15,5 11,1 39 21 59 32 SW 1018,2 - 0,0
03.07.2020 20:00:00 15,9 12,1 43 23 68 37 SW 1018,3 12 0,0
03.07.2020 19:00:00 16,6 11,9 40 22 63 34 SW 1018,3 - 0,0
03.07.2020 18:00:00 16,5 12,1 40 21 62 33 SW 1018,6 - 0,0
03.07.2020 17:00:00 16,9 12,0 40 22 62 34 SW 1019,0 10 0,0
03.07.2020 16:00:00 16,2 11,4 42 23 63 34 SW 1019,1 - 0,0
03.07.2020 15:00:00 16,7 11,6 39 21 60 33 SW 1018,9 - 0,0

tt = Température de l'air
td = dewpoint
ff = Vitesse du vent
fx = gusts
dd = Direction du vent
ppp = reduced air pressure
vv = visibility
rr = Quantités de précipitations

stations d'obs. à proximité